Back to catalog

COSMOS 1364

AliveMilitaryLEO
NORAD 13167·PAYLOAD·🇷🇺 Russia

Launched May 6, 1982 from Plesetsk Cosmodrome

Loading…

Next Passes (next 24 hours)

TLE

FreshSource: Space-Track

Epoch: Sep 14, 2026, 11:07 UTC

1 13167U 82040H   26257.46375156  .00000009  00000-0  17564-3 0  9996
2 13167  74.0128 159.2291 0031746  48.4461  63.0656 12.41891106 11066

Track COSMOS 1364 in real time with AllMySat

Download on the App Store